sat.trackr.live / text

‹ back to catalog

STARLINK-36893

NORAD 68112 · 2026-044M

PAYLOAD ACTIVE UNKNOWN

§ Identity

Operator
Country
US
Launch date
2026-03-08
Launch site
AFWTR
Launch vehicle
Mass (kg)
RCS (m²)

Purposes: comms

External: N2YO · Heavens-Above · Gunter

§ Orbital elements

Epoch: 2026-05-25T04:03:52.716096Z

Period
93.91 min
Inclination
97.2846°
Eccentricity
0.0002176
Mean motion
15.33453544 rev/d
Perigee alt
464.0 km
Apogee alt
467.0 km
Semi-major
6,843.7 km
B*
9.3118e-4
RAAN
105.7967°
Arg perigee
97.8370°
Mean anomaly
262.3120°
Rev number
1,330

§ Raw data

STARLINK-368931 68112U 26044M   26145.16936014  .00030116  00000+0  93118-3 0  99972 68112  97.2846 105.7967 0002176  97.8370 262.3120 15.33453544 13301

JSON: /api/v1/satellites/68112 · /tle

For live sub-satellite position, see the globe view (requires WebGL).

§ Visibility from observer

Set your observer location to see the next 7 days of passes ≥ 10°. The values pass through the URL so the page stays shareable.

No JS? Fill the form by hand. The geolocation button needs JavaScript.